Hlavní strana
METAR-TAF:

METAR-TAF

Letiště :

Middle Peninsula Regional Airport

West Point, Virginie, Spojené státy americké

zeměpisná šířka: 37-31-16N, zeměpisná délka: 076-45-52W, výška: 7 m

Aktuální stav počasí

Zpráva byla vytvořena před 23 minutami, v 09:15 UTC
Bezvětří
Teplota 21°C
Vlhkost vzduchu 100%
Tlak 1019 hPa
Viditelnost: 16.1 km
Zataženo ve výšce 1400 ft

METAR: KFYJ 070915Z AUTO 00000KT 10SM OVC014 21/21 A3008 RMK AO1 T02110205

Čas: 05:38 (09:38 UTC)


TAF: chybějící

Stav a předpovědi počasí z více než 4 000 letišť (zprávy METAR a TAF).

Červené a žluté tečky na mapě představují dostupné meteorologické stanice.

Když kurzor umístíte na tečku, zobrazí se název stanice.

Pak kliknutím zobrazíte stav a předpověď počasí.

Chcete-li změnit mapu, kliknutím na zelené tlačítko se znaménkem +mapu přiblížíte, kliknutím na zelené tlačítko se znaménkem – mapu oddálíte a kliknutím na zelené šipky přejdete na sousední mapy.


METAR-TAF: